Location: Eppenbrunn
(49.1158°N, 7.5601°E)
Time: 16:43:25
(UTC+00:00)

IGS 5A - Pass Details

Date: 18 August 2020
Orbit: 583 x 588 km, 97.6° (Epoch: 26 September)

Event Time Altitude Azimuth Distance (km) Brightness Sun altitude
Exits shadow 20:50:35 25° 193° (SSW) 1,207 4.7 -18.5°
Maximum altitude 20:52:48 53° 260° (W) 726 4.0 -18.7°
Drops below altitude 10° 20:56:54 10° 338° (NNW) 1,926 7.2 -19.2°
Sets 20:59:07 0° 343° (NNW) 2,832 8.1 -19.4°
